| time (UTC) | temp C | wind direction | speed KPH | gust KPH | rain 1hr cm | rain 24hr cm | rain mn cm | humidity % | barometer mb |
| 20260508182546 | 8 | 60 | 8.0 | 14.5 | 0.00 | 1.73 | 0.03 | 89 | 1001.6 |
| 20260508181608 | 7 | 4 | 6.4 | 11.3 | 0.00 | 1.73 | 0.03 | 92 | 1001.5 |
| 20260508180556 | 6 | 38 | 8.0 | 22.5 | 0.00 | 1.73 | 0.03 | 92 | 1001.5 |
| 20260508175604 | 6 | 35 | 4.8 | 12.9 | 0.00 | 2.79 | 0.03 | 89 | 1001.8 |
| 20260508174603 | 7 | 326 | 4.8 | 12.9 | 0.00 | 2.79 | 0.03 | 86 | 1001.8 |
| 20260508174041 | 7 | 335 | 3.2 | 9.7 | 0.00 | 2.79 | 0.03 | 87 | 1001.9 |
| 20260508173056 | 8 | 331 | 6.4 | 11.3 | 0.00 | 2.79 | 0.03 | 82 | 1001.7 |
| 20260508172551 | 9 | 344 | 6.4 | 12.9 | 0.00 | 2.79 | 0.03 | 80 | 1001.7 |
| 20260508172048 | 10 | 25 | 4.8 | 12.9 | 0.00 | 2.79 | 0.03 | 81 | 1001.8 |
| 20260508171104 | 10 | 33 | 6.4 | 12.9 | 0.00 | 2.79 | 0.03 | 81 | 1001.9 |
| 20260508165103 | 10 | 33 | 6.4 | 14.5 | 0.00 | 2.79 | 0.03 | 81 | 1001.8 |
| 20260508164600 | 10 | 355 | 6.4 | 14.5 | 0.00 | 2.79 | 0.03 | 82 | 1001.8 |
| 20260508163603 | 10 | 337 | 4.8 | 12.9 | 0.00 | 2.79 | 0.03 | 81 | 1001.7 |
| 20260508163102 | 11 | 21 | 4.8 | 12.9 | 0.00 | 2.79 | 0.03 | 81 | 1001.6 |
| 20260508162100 | 11 | 356 | 6.4 | 12.9 | 0.00 | 2.79 | 0.03 | 79 | 1001.4 |
| 20260508161051 | 11 | 52 | 6.4 | 14.5 | 0.00 | 2.79 | 0.03 | 83 | 1001.3 |
| 20260508160548 | 11 | 355 | 8.0 | 12.9 | 0.00 | 2.79 | 0.03 | 83 | 1001.3 |
| 20260508155809 | 11 | 36 | 8.0 | 12.9 | 0.00 | 2.79 | 0.03 | 83 | 1001.3 |
| 20260508154605 | 10 | 40 | 6.4 | 14.5 | 0.00 | 2.79 | 0.03 | 87 | 1001.7 |
| 20260508153546 | 10 | 25 | 6.4 | 16.1 | 0.00 | 2.79 | 0.03 | 84 | 1001.6 |
| 20260508152605 | 10 | 29 | 6.4 | 14.5 | 0.00 | 2.79 | 0.03 | 85 | 1001.6 |
| 20260508152054 | 10 | 28 | 6.4 | 16.1 | 0.00 | 2.79 | 0.03 | 86 | 1001.6 |
| 20260508151049 | 10 | 47 | 8.0 | 16.1 | 0.00 | 2.79 | 0.03 | 86 | 1001.6 |
| 20260508150111 | 10 | 37 | 8.0 | 16.1 | 0.00 | 2.79 | 0.03 | 86 | 1001.7 |
| 20260508145601 | 10 | 48 | 9.7 | 16.1 | 0.00 | 2.79 | 0.03 | 87 | 1001.8 |
| 20260508145102 | 10 | 16 | 8.0 | 19.3 | 0.00 | 2.79 | 0.03 | 86 | 1001.8 |
| 20260508144556 | 9 | 27 | 8.0 | 19.3 | 0.00 | 2.79 | 0.03 | 87 | 1001.8 |
| 20260508144048 | 9 | 35 | 9.7 | 17.7 | 0.00 | 2.79 | 0.03 | 86 | 1001.8 |
| 20260508143102 | 10 | 67 | 9.7 | 16.1 | 0.00 | 2.79 | 0.03 | 86 | 1001.8 |
| 20260508142539 | 10 | 349 | 6.4 | 16.1 | 0.00 | 2.79 | 0.03 | 87 | 1001.8 |
| 20260508141611 | 10 | 2 | 4.8 | 12.9 | 0.00 | 2.79 | 0.03 | 87 | 1002.0 |
| 20260508140603 | 10 | 7 | 4.8 | 11.3 | 0.00 | 2.79 | 0.03 | 85 | 1002.1 |
| 20260508140057 | 11 | 40 | 4.8 | 11.3 | 0.00 | 2.79 | 0.03 | 83 | 1002.2 |
| 20260508135554 | 11 | 347 | 4.8 | 8.0 | 0.00 | 2.79 | 0.03 | 83 | 1002.2 |
| 20260508134556 | 11 | 11 | 1.6 | 9.7 | 0.00 | 2.79 | 0.03 | 83 | 1002.4 |
| 20260508133549 | 11 | 40 | 1.6 | 6.4 | 0.00 | 2.79 | 0.03 | 84 | 1002.0 |
| 20260508132601 | 11 | 21 | 1.6 | 8.0 | 0.00 | 2.79 | 0.03 | 83 | 1002.0 |
| 20260508132045 | 11 | 360 | 1.6 | 17.7 | 0.00 | 2.79 | 0.03 | 84 | 1002.0 |
| 20260508131058 | 10 | 56 | 3.2 | 14.5 | 0.00 | 2.79 | 0.03 | 84 | 1001.9 |
| 20260508130554 | 10 | 109 | 4.8 | 14.5 | 0.00 | 2.79 | 0.03 | 85 | 1001.9 |
| 20260508125553 | 10 | 83 | 6.4 | 14.5 | 0.00 | 2.79 | 0.03 | 85 | 1001.7 |
| 20260508124606 | 10 | 134 | 4.8 | 14.5 | 0.00 | 2.79 | 0.03 | 86 | 1001.8 |
| 20260508123549 | 10 | 104 | 6.4 | 16.1 | 0.00 | 2.79 | 0.03 | 88 | 1002.0 |
| 20260508122554 | 10 | 131 | 4.8 | 12.9 | 0.00 | 2.79 | 0.03 | 90 | 1002.0 |
| 20260508121057 | 9 | 114 | 4.8 | 16.1 | 0.00 | 2.79 | 0.03 | 92 | 1001.9 |
| 20260508120537 | 9 | 110 | 6.4 | 14.5 | 0.00 | 2.79 | 0.03 | 94 | 1001.9 |
| 20260508115604 | 8 | 106 | 6.4 | 11.3 | 0.00 | 2.79 | 0.03 | 95 | 1002.0 |
| 20260508115043 | 8 | 104 | 3.2 | 9.7 | 0.00 | 2.79 | 0.03 | 96 | 1001.9 |
| 20260508114059 | 8 | 52 | 1.6 | 11.3 | 0.00 | 2.79 | 0.03 | 97 | 1001.8 |
| 20260508113127 | 8 | 71 | 3.2 | 12.9 | 0.00 | 2.79 | 0.03 | 97 | 1002.1 |
| 20260508112603 | 7 | 85 | 3.2 | 11.3 | 0.00 | 2.79 | 0.03 | 98 | 1002.0 |
| 20260508111604 | 7 | 104 | 4.8 | 9.7 | 0.00 | 2.79 | 0.03 | 99 | 1002.1 |
| 20260508111057 | 6 | 142 | 1.6 | 8.0 | 0.00 | 2.79 | 0.03 | 99 | 1002.2 |
| 20260508110056 | 6 | 94 | 6.4 | 9.7 | 0.00 | 2.79 | 0.03 | 99 | 1002.1 |
| 20260508105555 | 6 | 101 | 3.2 | 9.7 | 0.00 | 2.79 | 0.03 | 99 | 1002.2 |
| 20260508105052 | 5 | 81 | 3.2 | 9.7 | 0.00 | 2.79 | 0.03 | 99 | 1002.2 |
| 20260508104059 | 5 | 62 | 3.2 | 8.0 | 0.00 | 2.79 | 0.03 | 99 | 1002.3 |
| 20260508103543 | 5 | 76 | 3.2 | 8.0 | 0.00 | 2.79 | 0.03 | 99 | 1002.3 |
| 20260508102555 | 5 | 83 | 3.2 | 8.0 | 0.00 | 2.79 | 0.03 | 99 | 1002.3 |
| 20260508101604 | 5 | 68 | 1.6 | 8.0 | 0.00 | 2.79 | 0.03 | 99 | 1002.2 |
| 20260508101101 | 5 | 69 | 3.2 | 9.7 | 0.00 | 2.79 | 0.03 | 99 | 1002.1 |
| 20260508100559 | 5 | 60 | 4.8 | 9.7 | 0.00 | 2.79 | 0.03 | 99 | 1002.0 |
| 20260508095556 | 4 | 82 | 1.6 | 8.0 | 0.00 | 2.79 | 0.03 | 99 | 1001.8 |
| 20260508094607 | 4 | 57 | 1.6 | 4.8 | 0.00 | 2.79 | 0.03 | 99 | 1001.9 |
| 20260508094052 | 4 | 57 | 1.6 | 4.8 | 0.00 | 2.79 | 0.03 | 98 | 1001.8 |
| 20260508093104 | 4 | 57 | 1.6 | 6.4 | 0.00 | 2.79 | 0.03 | 98 | 1001.8 |
| 20260508092058 | 4 | 57 | 0.0 | 3.2 | 0.00 | 2.79 | 0.03 | 98 | 1001.9 |
| 20260508091559 | 4 | 57 | 0.0 | 6.4 | 0.00 | 2.79 | 0.03 | 98 | 1002.0 |
| 20260508090605 | 4 | 57 | 1.6 | 4.8 | 0.00 | 2.79 | 0.03 | 98 | 1001.6 |
| 20260508085547 | 4 | 60 | 3.2 | 8.0 | 0.00 | 2.79 | 0.03 | 99 | 1001.4 |
| 20260508084601 | 4 | 44 | 6.4 | 12.9 | 0.00 | 2.79 | 0.03 | 99 | 1001.2 |
| 20260508083554 | 4 | 71 | 4.8 | 11.3 | 0.00 | 2.79 | 0.03 | 99 | 1001.2 |
| 20260508082559 | 4 | 50 | 4.8 | 12.9 | 0.00 | 2.79 | 0.03 | 99 | 1000.8 |
| 20260508082049 | 4 | 11 | 8.0 | 16.1 | 0.00 | 2.79 | 0.03 | 99 | 1000.9 |
| 20260508081049 | 4 | 52 | 6.4 | 14.5 | 0.00 | 2.79 | 0.03 | 99 | 1001.0 |
| 20260508080049 | 4 | 57 | 9.7 | 17.7 | 0.00 | 2.79 | 0.03 | 99 | 1000.9 |
| 20260508075048 | 4 | 79 | 6.4 | 12.9 | 0.03 | 2.79 | 0.03 | 99 | 1000.9 |
| 20260508074104 | 4 | 74 | 4.8 | 12.9 | 0.03 | 2.79 | 0.03 | 99 | 1001.1 |
| 20260508073101 | 4 | 73 | 4.8 | 9.7 | 0.03 | 2.79 | 0.03 | 99 | 1001.3 |
| 20260508072551 | 5 | 112 | 6.4 | 8.0 | 0.03 | 2.79 | 0.03 | 99 | 1001.1 |
| 20260508072047 | 5 | 77 | 4.8 | 8.0 | 0.03 | 2.79 | 0.03 | 99 | 1001.1 |
| 20260508071050 | 5 | 65 | 4.8 | 9.7 | 0.03 | 2.79 | 0.03 | 99 | 1001.3 |
| 20260508070053 | 5 | 44 | 4.8 | 11.3 | 0.03 | 2.79 | 0.03 | 99 | 1001.3 |
| 20260508065056 | 5 | 61 | 3.2 | 9.7 | 0.00 | 2.77 | 0.00 | 99 | 1001.3 |
| 20260508064549 | 5 | 36 | 1.6 | 8.0 | 0.00 | 2.77 | 0.00 | 99 | 1001.2 |
| 20260508063603 | 5 | 66 | 1.6 | 8.0 | 0.00 | 2.77 | 0.00 | 99 | 1001.1 |
| 20260508062600 | 5 | 48 | 1.6 | 8.0 | 0.00 | 2.77 | 0.00 | 99 | 1001.1 |
| 20260508062056 | 5 | 34 | 1.6 | 6.4 | 0.00 | 2.77 | 0.00 | 99 | 1001.2 |
| 20260508061538 | 5 | 33 | 0.0 | 8.0 | 0.00 | 2.77 | 0.00 | 99 | 1001.2 |
| 20260508060542 | 5 | 39 | 1.6 | 8.0 | 0.00 | 2.77 | 0.00 | 99 | 1001.0 |
| 20260508055602 | 5 | 64 | 1.6 | 6.4 | 0.00 | 2.77 | 0.00 | 99 | 1001.3 |
| 20260508054559 | 6 | 11 | 0.0 | 3.2 | 0.00 | 2.77 | 0.00 | 99 | 1001.4 |
| 20260508054057 | 6 | 11 | 0.0 | 3.2 | 0.00 | 2.77 | 0.00 | 99 | 1001.5 |
| 20260508053107 | 5 | 11 | 0.0 | 3.2 | 0.00 | 2.77 | 0.00 | 99 | 1001.6 |
| 20260508052550 | 6 | 11 | 0.0 | 6.4 | 0.00 | 2.77 | 0.00 | 99 | 1001.6 |
| 20260508051602 | 5 | 41 | 3.2 | 8.0 | 0.00 | 2.77 | 0.00 | 99 | 1001.4 |
| 20260508051057 | 5 | 30 | 1.6 | 8.0 | 0.00 | 2.77 | 0.00 | 99 | 1001.4 |
| 20260508050058 | 5 | 56 | 3.2 | 8.0 | 0.00 | 2.77 | 0.00 | 99 | 1001.4 |
| 20260508045102 | 6 | 32 | 3.2 | 8.0 | 0.00 | 2.77 | 0.00 | 99 | 1001.4 |
| 20260508044603 | 6 | 352 | 1.6 | 6.4 | 0.00 | 2.77 | 0.00 | 99 | 1001.4 |
| 20260508044041 | 6 | 351 | 1.6 | 6.4 | 0.00 | 2.77 | 0.00 | 99 | 1001.4 |
| 20260508043106 | 6 | 38 | 1.6 | 3.2 | 0.00 | 2.77 | 0.00 | 99 | 1001.4 |
| 20260508042554 | 6 | 38 | 0.0 | 6.4 | 0.00 | 2.77 | 0.00 | 99 | 1001.5 |
| 20260508041600 | 6 | 38 | 1.6 | 6.4 | 0.00 | 2.77 | 0.00 | 99 | 1001.7 |
| 20260508041057 | 6 | 38 | 0.0 | 3.2 | 0.00 | 2.77 | 0.00 | 99 | 1001.6 |
| 20260508040548 | 6 | 38 | 1.6 | 3.2 | 0.00 | 2.77 | 0.00 | 99 | 1001.7 |
| 20260508035559 | 6 | 360 | 0.0 | 8.0 | 0.00 | 2.77 | 0.00 | 99 | 1001.7 |
| 20260508035054 | 6 | 360 | 1.6 | 8.0 | 0.00 | 2.77 | 0.00 | 99 | 1001.8 |
| 20260508034551 | 6 | 358 | 1.6 | 8.0 | 0.00 | 2.77 | 0.00 | 98 | 1001.9 |
| 20260508033602 | 6 | 64 | 1.6 | 8.0 | 0.00 | 2.77 | 0.00 | 99 | 1001.9 |
| 20260508032555 | 6 | 327 | 1.6 | 6.4 | 0.00 | 2.77 | 0.00 | 99 | 1001.9 |
| 20260508032050 | 6 | 21 | 0.0 | 6.4 | 0.00 | 2.77 | 0.00 | 99 | 1001.9 |
| 20260508031051 | 6 | 3 | 0.0 | 6.4 | 0.00 | 2.77 | 0.00 | 99 | 1002.0 |
| 20260508030114 | 6 | 337 | 1.6 | 6.4 | 0.03 | 2.77 | 0.00 | 99 | 1001.9 |
| 20260508025558 | 7 | 337 | 1.6 | 8.0 | 0.03 | 2.77 | 2.77 | 99 | 1001.9 |
| 20260508024605 | 7 | 309 | 1.6 | 6.4 | 0.05 | 2.77 | 2.77 | 99 | 1001.6 |
| 20260508023552 | 7 | 125 | 1.6 | 4.8 | 0.05 | 2.77 | 2.77 | 99 | 1001.8 |
| 20260508022602 | 7 | 196 | 1.6 | 3.2 | 0.05 | 2.77 | 2.77 | 99 | 1002.1 |
| 20260508022049 | 7 | 335 | 0.0 | 1.6 | 0.05 | 2.77 | 2.77 | 99 | 1001.8 |
| 20260508021058 | 7 | 335 | 0.0 | 6.4 | 0.10 | 2.77 | 2.77 | 99 | 1001.9 |
| 20260508020103 | 7 | 347 | 1.6 | 6.4 | 0.10 | 2.77 | 2.77 | 99 | 1002.2 |
| 20260508015550 | 7 | 347 | 0.0 | 6.4 | 0.10 | 2.77 | 2.77 | 99 | 1002.2 |
| 20260508015044 | 7 | 347 | 1.6 | 6.4 | 0.10 | 2.77 | 2.77 | 99 | 1002.4 |
| 20260508014059 | 7 | 347 | 0.0 | 9.7 | 0.10 | 2.74 | 2.74 | 99 | 1002.3 |
| 20260508013115 | 7 | 327 | 4.8 | 9.7 | 0.10 | 2.72 | 2.72 | 98 | 1002.0 |
| 20260508012556 | 7 | 347 | 3.2 | 11.3 | 0.13 | 2.72 | 2.72 | 99 | 1002.1 |
| 20260508012050 | 7 | 288 | 4.8 | 11.3 | 0.13 | 2.72 | 2.72 | 98 | 1002.0 |
| 20260508011058 | 7 | 42 | 3.2 | 9.7 | 0.13 | 2.67 | 2.67 | 98 | 1002.1 |
| 20260508010105 | 7 | 350 | 4.8 | 9.7 | 0.18 | 2.64 | 2.64 | 98 | 1002.1 |
| 20260508005103 | 7 | 347 | 1.6 | 6.4 | 0.25 | 2.64 | 2.64 | 98 | 1002.1 |
| 20260508004559 | 7 | 97 | 0.0 | 6.4 | 0.28 | 2.64 | 2.64 | 98 | 1002.1 |
| 20260508003556 | 7 | 216 | 0.0 | 3.2 | 0.38 | 2.64 | 2.64 | 98 | 1002.1 |
| 20260508003059 | 7 | 220 | 0.0 | 3.2 | 0.43 | 2.62 | 2.62 | 98 | 1002.2 |
| 20260508002050 | 7 | 242 | 0.0 | 6.4 | 0.51 | 2.59 | 2.59 | 98 | 1002.2 |
| 20260508001110 | 7 | 243 | 4.8 | 9.7 | 0.48 | 2.54 | 2.54 | 98 | 1002.0 |
| 20260508000057 | 7 | 276 | 3.2 | 9.7 | 0.43 | 2.49 | 2.49 | 98 | 1001.9 |
| 20260507235056 | 7 | 166 | 6.4 | 14.5 | 0.33 | 2.39 | 2.39 | 97 | 1001.8 |
| 20260507234543 | 7 | 216 | 8.0 | 19.3 | 0.30 | 2.36 | 2.36 | 97 | 1001.7 |
| 20260507233600 | 6 | 223 | 11.3 | 20.9 | 0.18 | 2.24 | 2.24 | 96 | 1001.6 |
| 20260507232600 | 7 | 227 | 11.3 | 24.1 | 0.05 | 2.11 | 2.11 | 95 | 1001.5 |
| 20260507231556 | 7 | 278 | 9.7 | 24.1 | 0.00 | 2.06 | 2.06 | 92 | 1001.4 |
| 20260507230603 | 10 | 235 | 6.4 | 30.6 | 0.00 | 2.06 | 2.06 | 87 | 1001.3 |
| 20260507225605 | 12 | 247 | 17.7 | 38.6 | 0.00 | 2.06 | 2.06 | 90 | 1000.8 |
| 20260507225105 | 12 | 237 | 17.7 | 40.2 | 0.00 | 2.06 | 2.06 | 90 | 1000.7 |
| 20260507224600 | 12 | 232 | 16.1 | 37.0 | 0.00 | 2.06 | 2.06 | 90 | 1000.6 |
| 20260507224051 | 12 | 229 | 19.3 | 37.0 | 0.00 | 2.06 | 2.06 | 90 | 1000.6 |
| 20260507223100 | 12 | 208 | 17.7 | 40.2 | 0.00 | 2.06 | 2.06 | 90 | 1000.5 |
| 20260507222104 | 12 | 200 | 17.7 | 41.8 | 0.00 | 2.06 | 2.06 | 91 | 1000.6 |
| 20260507221544 | 12 | 225 | 22.5 | 40.2 | 0.00 | 2.06 | 2.06 | 91 | 1000.6 |
| 20260507220602 | 12 | 210 | 17.7 | 40.2 | 0.00 | 2.06 | 2.06 | 91 | 1000.5 |
| 20260507220051 | 12 | 212 | 20.9 | 40.2 | 0.00 | 2.06 | 2.06 | 92 | 1000.5 |
| 20260507215100 | 11 | 193 | 17.7 | 32.2 | 0.00 | 2.06 | 2.06 | 92 | 1000.4 |
| 20260507214100 | 12 | 200 | 17.7 | 41.8 | 0.00 | 2.06 | 2.06 | 92 | 1000.3 |
| 20260507213559 | 12 | 202 | 20.9 | 37.0 | 0.00 | 2.06 | 2.06 | 92 | 1000.3 |
| 20260507213056 | 11 | 215 | 20.9 | 37.0 | 0.00 | 2.06 | 2.06 | 93 | 1000.2 |
| 20260507212557 | 12 | 157 | 20.9 | 37.0 | 0.00 | 2.06 | 2.06 | 92 | 1000.1 |
| 20260507211552 | 12 | 190 | 24.1 | 45.1 | 0.00 | 2.06 | 2.06 | 92 | 1000.1 |
| 20260507210602 | 11 | 210 | 22.5 | 48.3 | 0.03 | 2.06 | 2.06 | 94 | 1000.1 |
| 20260507205600 | 11 | 200 | 27.4 | 45.1 | 0.05 | 2.06 | 2.06 | 95 | 1000.0 |
| 20260507204600 | 11 | 178 | 22.5 | 46.7 | 0.15 | 2.06 | 2.06 | 97 | 1000.1 |
| 20260507203559 | 10 | 178 | 25.7 | 43.5 | 0.23 | 2.06 | 2.06 | 97 | 999.8 |
| 20260507203101 | 10 | 206 | 27.4 | 43.5 | 0.25 | 2.06 | 2.06 | 97 | 999.6 |
| 20260507202058 | 10 | 185 | 29.0 | 48.3 | 0.30 | 2.06 | 2.06 | 97 | 999.1 |
| 20260507201558 | 10 | 221 | 33.8 | 49.9 | 0.33 | 2.06 | 2.06 | 97 | 998.9 |
| 20260507200547 | 10 | 158 | 37.0 | 59.5 | 0.38 | 2.03 | 2.03 | 97 | 998.5 |
| 20260507195556 | 10 | 142 | 35.4 | 54.7 | 0.43 | 2.01 | 2.01 | 97 | 999.3 |
| 20260507194554 | 10 | 173 | 30.6 | 56.3 | 0.41 | 1.93 | 1.93 | 97 | 999.8 |
| 20260507193106 | 11 | 208 | 19.3 | 35.4 | 0.36 | 1.78 | 1.78 | 97 | 1001.7 |
| 20260507192100 | 11 | 221 | 20.9 | 37.0 | 0.41 | 1.75 | 1.75 | 97 | 1002.2 |
| 20260507191600 | 11 | 208 | 20.9 | 43.5 | 0.43 | 1.73 | 1.73 | 97 | 1002.1 |
| 20260507191054 | 11 | 229 | 25.7 | 49.9 | 0.43 | 1.65 | 1.65 | 97 | 1002.0 |
| 20260507185548 | 11 | 202 | 29.0 | 48.3 | 0.56 | 1.57 | 1.57 | 97 | 1002.3 |
| 20260507184606 | 11 | 144 | 30.6 | 57.9 | 0.71 | 1.52 | 1.52 | 97 | 1002.2 |
| 20260507183543 | 11 | 188 | 35.4 | 59.5 | 1.07 | 1.45 | 1.45 | 97 | 1001.8 |